Temp
22 22 20 20 22 22 23 22 21 19 20 20 18 19 19 19 18 18 18 18 18 18 17 17 17 17 17 16 16 16 16 16 16 17 16 16 16 16 16 16 17 16 15
21 22 18 18 19 20 23 25 20 20 18 18 18 18 19 19 18 18 18 18 18 17 17 17 17 17 16 16 16 16 16 16 16 16 16 16 15 15 15 15 16 15 15
21 20 19 19 20 20 20 20 20 19 18 18 18 18 18 18 18 18 18 18 17 17 17 17 16 16 15 15 16 16 16 16 16 17 17 16 15 15 14 14 14 14 14
20 20 20 19 20 19 19 18 19 18 18 18 18 18 18 18 18 18 18 17 17 17 17 17 16 16 15 15 16 16 16 17 17 18 19 18 15 14 14 14 14 14 14
20 21 20 19 19 19 18 18 18 18 18 18 18 18 17 17 18 17 17 17 17 17 16 16 16 15 15 15 15 16 16 16 17 18 17 17 16 14 14 14 13 13 13
18 20 20 18 19 20 18 18 18 18 18 18 18 17 17 17 17 17 17 17 17 17 17 16 15 14 15 15 15 15 16 17 18 18 17 16 15 14 13 13 13 13 13
18 19 19 18 19 20 19 18 18 18 18 18 17 17 17 17 17 17 17 17 17 16 15 15 14 15 15 15 15 15 16 17 18 18 17 16 14 13 13 13 12 12 12
17 18 18 18 19 20 19 19 18 18 18 17 17 17 17 17 17 17 17 17 16 16 15 14 14 15 15 15 15 15 15 17 18 18 16 15 13 13 13 12 12 12 12
16 17 17 17 18 19 19 18 18 18 18 18 17 17 17 17 17 17 16 16 16 16 16 16 15 15 15 15 15 15 15 17 18 17 16 15 13 13 13 12 12 11 11
16 16 16 17 17 17 17 17 18 18 18 18 17 18 17 17 16 17 17 17 16 16 16 16 15 15 15 14 14 14 15 16 17 17 17 14 13 13 12 12 11 11 11
16 15 15 15 16 17 17 16 17 17 17 17 17 17 17 16 16 17 17 16 16 16 16 16 16 15 14 14 14 14 16 17 17 17 15 13 13 13 12 12 11 11 11
15 16 15 15 15 15 16 16 16 16 15 16 16 16 16 16 16 17 16 16 16 16 16 16 15 15 15 14 14 15 17 17 17 17 15 13 13 13 12 12 11 11 11
16 15 15 15 14 15 15 14 14 14 15 15 15 16 16 16 17 16 15 15 15 15 15 15 14 16 16 16 15 17 16 16 17 16 14 13 12 12 12 11 11 11 10
15 15 15 15 14 14 13 13 14 14 14 14 13 14 15 16 16 17 17 17 16 16 16 16 16 17 16 16 16 16 16 17 17 16 13 13 12 12 12 12 11 11 10
14 14 14 14 14 14 13 13 13 14 14 14 14 15 15 16 17 17 17 17 18 18 17 17 17 16 16 16 16 16 16 16 16 16 14 13 13 12 12 12 11 11 10
14 13 14 13 13 13 13 13 13 13 14 13 14 15 16 16 16 17 17 17 17 17 17 17 17 16 17 16 16 16 15 15 15 16 16 13 13 12 12 12 12 11 11
15 13 13 13 13 13 12 13 13 12 13 13 15 15 16 15 16 16 17 18 17 17 17 17 16 17 17 17 16 15 15 15 15 15 16 15 13 12 12 12 12 11 11
13 13 13 12 12 12 12 12 12 13 13 13 13 14 14 15 15 16 17 17 17 17 17 17 16 17 17 17 16 16 16 15 15 15 15 15 15 14 12 12 12 11 11
13 13 12 12 12 12 12 12 12 12 13 13 14 14 16 16 16 16 17 16 16 17 17 17 16 17 17 17 16 16 16 16 15 15 15 14 15 15 15 13 12 12 11
13 13 13 12 12 12 12 12 12 12 12 13 14 14 14 15 15 16 17 16 16 17 16 16 16 16 17 17 17 16 16 16 15 15 15 15 15 14 14 14 13 12 11
14 13 13 12 12 12 12 12 12 11 12 14 14 13 14 15 15 16 17 16 16 17 17 16 16 16 16 16 16 16 15 15 15 15 15 15 14 14 14 14 14 14 13
15 13 12 12 12 12 12 12 12 12 12 12 13 13 14 14 15 16 17 16 16 17 16 15 15 16 17 15 17 18 19 17 16 15 15 15 14 14 14 13 14 14 14
15 14 12 12 12 12 12 12 12 11 12 12 13 14 14 15 16 16 16 16 16 16 16 15 15 16 17 15 16 18 19 19 20 17 15 15 14 13 13 14 14 14 13
17 15 13 12 12 12 12 12 11 12 12 12 13 14 15 15 15 16 15 15 15 16 16 16 15 15 16 17 15 16 17 18 20 19 17 15 14 13 13 14 15 13 13
17 16 15 13 12 12 12 12 12 12 12 12 13 13 14 15 15 15 15 15 15 16 15 15 15 15 16 16 17 17 16 16 16 17 19 17 13 12 12 13 14 14 12
18 16 15 14 13 12 12 12 12 13 13 14 13 13 13 14 14 14 15 15 16 15 15 16 15 15 15 15 16 16 17 17 17 16 17 17 15 12 13 11 13 12 11
Height
770 773 774 774 773 773 777 785 793 794 795 797 800 800 803 806 810 816 817 822 824 825 828 830 832 833 835 836 839 841 842 844 845 845 847 848 848 850 851 851 851 853 853
772 775 776 777 778 778 776 766 788 793 797 799 802 804 804 803 812 819 818 824 827 828 831 832 835 837 838 840 842 844 846 847 849 849 851 853 853 854 855 853 855 857 858
773 775 777 779 778 780 779 780 781 792 795 801 804 806 809 804 814 819 820 825 829 832 834 836 838 841 843 843 846 847 849 850 853 853 855 858 860 860 859 859 859 858 861
773 774 778 779 779 780 780 784 787 791 795 799 805 808 812 810 813 820 823 827 830 834 837 839 841 845 846 846 848 849 851 854 856 856 857 861 864 864 863 863 865 863 863
772 775 778 778 780 783 783 786 788 793 795 801 804 810 812 814 813 822 825 829 834 838 840 841 844 847 847 849 850 852 854 856 860 857 862 864 867 866 868 866 869 866 867
772 775 776 777 780 781 782 786 789 792 796 800 807 810 815 816 814 824 828 832 836 841 842 843 846 848 851 850 854 854 857 858 861 860 865 868 869 868 869 869 872 871 869
769 773 776 777 780 782 783 785 789 792 796 802 806 810 817 819 816 824 831 835 839 843 843 846 848 848 852 853 856 858 858 861 863 863 866 871 871 872 871 873 875 872 873
768 771 775 777 780 781 783 783 788 792 799 804 808 811 818 821 821 826 833 836 842 842 845 848 850 851 854 857 858 861 863 864 867 866 870 872 874 875 876 876 877 877 877
768 769 773 777 780 781 785 787 788 792 798 802 810 813 815 822 824 828 832 839 841 844 847 851 853 854 856 858 860 863 864 867 868 869 871 873 875 878 880 880 881 882 882
768 769 773 778 782 786 788 788 789 792 798 804 811 817 816 824 827 830 833 840 842 846 849 854 855 856 858 862 862 865 867 868 871 872 873 876 879 881 881 882 884 884 887
768 770 774 776 781 786 788 789 799 801 802 807 811 816 816 826 831 832 837 841 845 847 852 856 857 859 862 864 865 868 869 871 872 874 877 881 883 884 884 885 886 887 889
767 768 771 769 779 785 789 793 797 800 800 808 812 818 821 827 830 836 839 843 846 850 855 857 859 862 865 867 871 870 871 872 873 876 879 881 885 886 888 889 890 891 892
767 767 768 772 780 784 789 790 794 797 805 809 813 820 823 827 832 839 841 846 848 853 857 860 863 864 867 868 869 872 873 874 875 878 880 883 884 886 889 890 890 892 893
767 768 768 772 774 778 785 791 793 798 805 810 814 821 827 829 833 838 840 846 849 854 857 860 863 865 867 868 870 872 875 876 877 880 881 884 887 889 890 892 892 893 894
767 769 770 771 775 779 782 786 789 792 802 808 814 822 827 828 832 835 841 844 848 852 856 860 862 865 867 869 871 873 876 877 879 880 881 883 885 888 891 892 894 894 895
767 767 769 772 775 778 781 782 783 787 799 807 815 821 825 827 832 835 839 844 848 852 856 860 862 865 868 870 873 875 876 878 880 881 882 884 886 890 891 893 893 894 895
768 769 770 772 774 777 781 782 783 788 798 807 816 821 825 827 831 835 838 845 848 852 855 859 862 864 867 870 872 875 877 878 880 880 882 883 886 889 890 891 892 894 895
767 769 772 775 775 778 781 782 785 792 801 808 814 821 823 826 830 832 839 845 848 851 856 859 861 863 867 869 870 873 876 878 881 881 882 882 885 887 889 890 891 891 893
766 768 771 774 777 779 782 786 790 797 803 809 815 819 822 826 832 837 840 844 847 851 854 857 859 862 865 867 870 872 874 877 880 880 881 881 882 883 885 885 889 889 890
765 766 769 773 777 781 784 788 794 799 804 810 815 821 826 828 834 836 839 843 846 850 852 855 859 861 863 865 867 870 872 874 876 876 877 878 880 881 881 882 885 887 886
762 765 767 770 776 779 784 788 793 797 803 808 814 820 827 831 834 835 838 841 844 847 849 853 857 859 862 863 866 868 870 871 872 874 873 873 875 876 879 879 880 881 881
759 762 766 768 773 778 783 788 794 797 803 807 814 820 825 827 830 833 836 839 842 845 848 851 854 856 858 861 862 862 862 866 867 867 867 870 869 870 871 873 875 876 877
754 759 763 766 770 776 781 787 792 798 805 811 813 817 820 824 827 831 835 837 841 842 845 848 850 853 856 858 858 858 855 855 853 859 862 863 865 866 866 867 868 869 871
749 754 760 765 769 773 777 783 788 791 797 801 806 812 816 821 824 828 831 835 837 839 841 844 846 848 852 851 855 855 854 853 850 851 856 859 859 860 862 864 864 863 864
745 750 755 761 766 769 773 778 783 789 794 800 806 811 813 816 819 823 826 830 832 834 835 840 840 843 846 849 847 849 851 851 852 851 846 849 855 853 854 858 858 857 858
740 746 752 756 761 765 769 774 778 782 790 795 799 804 808 810 813 816 822 824 827 828 830 833 835 837 840 843 842 844 844 845 845 847 846 845 848 849 849 852 853 851 851
Wind_Speed
9 17 21 25 31 37 33 26 28 30 33 34 34 34 33 34 32 29 30 28 27 27 25 23 23 23 23 25 25 26 27 29 29 29 28 28 28 27 28 28 28 28 29
13 18 20 21 29 34 31 28 37 32 32 33 33 34 34 35 32 30 31 29 27 26 24 25 23 22 22 24 26 28 31 31 30 31 29 28 27 27 27 29 28 26 27
17 20 18 18 23 26 31 34 39 36 34 34 34 33 33 38 34 32 32 29 29 26 25 24 24 23 23 25 29 29 29 30 28 26 24 23 23 24 25 26 26 27 26
18 21 21 20 23 27 30 35 37 36 36 34 35 33 34 35 36 33 32 31 30 27 26 25 24 24 24 28 27 27 28 29 26 22 21 21 21 23 24 25 25 26 26
19 21 22 22 23 25 30 34 35 35 36 35 36 35 35 35 35 33 32 32 29 27 26 26 25 25 27 29 27 28 30 26 21 22 21 20 20 22 23 24 24 26 25
18 23 24 26 27 27 34 35 37 37 36 35 35 34 34 35 36 33 32 32 30 28 26 25 25 25 28 29 29 29 28 25 20 21 20 20 20 21 22 23 23 24 25
21 22 21 29 28 25 26 35 37 38 37 37 36 35 33 34 36 35 34 33 31 28 26 25 26 28 27 28 29 30 27 22 20 21 21 20 21 21 22 23 22 23 24
18 19 22 27 30 27 28 31 38 37 33 36 36 36 35 35 36 36 33 30 27 28 26 26 26 27 27 27 28 24 24 21 19 20 20 21 21 21 21 21 21 22 22
15 20 21 24 24 29 30 31 35 35 34 34 36 37 37 35 37 36 32 28 27 26 27 27 26 26 26 25 24 25 24 19 18 20 20 20 21 20 20 20 20 20 21
12 18 17 20 18 20 24 25 28 34 34 32 34 34 38 36 36 35 32 28 28 30 28 27 26 25 25 24 25 25 24 20 18 18 18 20 20 19 19 19 19 20 19
9 15 22 28 23 22 23 21 24 26 30 34 37 35 39 30 30 29 26 29 31 31 28 27 27 26 25 25 24 24 17 16 16 16 17 20 18 18 18 19 19 18 18
6 14 22 25 40 24 26 27 26 25 29 33 33 34 30 30 28 24 27 31 33 31 29 27 27 26 22 20 20 14 13 15 15 16 18 20 18 17 17 17 17 17 17
3 10 17 34 29 26 26 27 24 25 29 32 32 29 27 25 26 24 26 28 29 29 24 24 25 18 17 19 17 12 15 14 15 16 19 19 18 18 17 16 17 16 15
4 6 15 26 30 36 35 35 33 33 35 36 36 32 29 27 28 26 26 27 28 25 23 22 19 15 16 16 15 15 14 13 13 15 17 17 16 15 15 15 15 15 14
6 9 10 21 28 30 32 33 31 37 40 37 35 28 28 28 26 27 26 26 26 23 22 21 18 17 16 16 15 15 13 12 12 13 15 17 17 16 15 15 14 13 13
5 5 9 11 19 24 24 28 28 42 40 35 30 28 25 27 26 25 24 23 22 21 20 18 18 17 16 15 14 13 12 12 11 11 12 14 16 17 16 15 14 13 13
8 9 8 11 14 17 27 23 32 37 40 33 26 27 26 24 25 24 22 21 20 19 20 18 17 16 15 15 14 13 11 11 10 10 11 11 12 16 17 17 16 15 14
8 13 12 11 17 23 25 26 35 37 34 29 25 24 23 26 26 23 21 20 19 18 18 16 16 15 15 15 14 12 11 10 9 9 9 10 12 12 16 17 17 17 15
10 16 15 15 22 27 28 27 34 34 31 26 23 21 24 24 23 20 20 19 19 18 17 15 14 15 15 15 13 12 11 10 10 11 11 12 12 12 13 18 19 17 18
11 17 20 19 24 23 27 27 30 34 30 27 26 20 18 21 23 20 19 18 19 18 16 15 15 14 15 14 13 12 12 12 12 13 13 11 12 14 14 13 16 18 21
12 13 21 25 28 27 28 26 25 28 37 35 38 22 18 23 24 21 20 19 20 19 18 17 15 15 14 14 12 10 11 12 13 14 14 14 15 15 15 14 16 16 19
16 16 21 24 31 31 29 27 23 29 34 35 38 25 19 23 23 23 21 21 21 19 18 17 17 15 14 16 13 13 6 12 17 20 18 19 19 18 18 18 19 19 17
20 20 19 24 31 32 32 27 22 24 25 28 31 29 26 23 25 25 24 22 23 21 20 20 18 16 15 16 17 10 5 6 9 13 21 21 19 20 20 20 22 21 20
21 21 21 22 30 31 34 30 32 30 27 29 35 29 28 25 26 27 24 23 23 22 21 21 19 19 19 17 17 22 20 13 5 6 10 14 20 19 21 22 21 21 21
21 23 23 23 25 31 34 32 34 27 26 26 27 27 27 26 27 26 24 24 24 22 21 22 20 20 21 23 18 15 19 20 18 14 10 12 15 22 23 22 24 20 22
22 23 24 25 26 30 35 32 35 32 28 26 30 29 33 33 28 25 25 23 25 22 21 22 21 19 21 21 21 20 19 15 16 18 13 20 14 11 20 22 25 23 21
Wind_Direction
185 169 171 170 173 171 170 177 180 172 167 164 158 152 149 148 146 145 132 129 132 127 122 119 118 113 107 106 106 107 111 108 106 103 99 95 93 92 91 91 90 87 85
177 172 183 176 173 175 175 158 183 175 167 159 155 152 151 145 148 142 135 138 134 123 123 121 116 119 115 113 112 112 110 108 107 101 97 91 90 91 89 92 89 86 81
181 179 185 191 180 179 180 175 172 172 164 159 153 150 148 144 146 145 140 133 126 124 123 122 121 119 120 117 121 118 116 111 103 99 99 91 89 89 87 87 87 86 83
189 184 181 183 185 181 179 176 171 167 163 158 155 151 151 147 147 146 140 135 131 130 129 128 124 125 123 124 126 124 120 112 106 108 103 102 96 92 94 92 91 91 89
195 191 190 198 194 184 176 174 169 165 160 158 155 154 151 150 145 144 139 136 133 133 131 128 130 131 130 129 128 124 118 112 111 107 106 106 107 100 97 97 97 96 95
193 199 199 200 193 193 176 174 168 164 161 158 158 153 152 149 143 142 138 132 134 134 132 131 134 133 137 135 134 128 120 115 114 111 110 112 112 108 104 99 99 99 97
200 200 201 198 194 188 192 173 170 166 162 162 160 156 154 149 145 143 139 144 139 139 134 134 137 139 140 137 138 134 122 119 120 115 116 115 114 112 108 105 102 99 97
208 205 203 198 197 186 188 180 171 168 169 161 159 155 154 151 146 144 149 147 146 143 140 139 138 139 140 142 142 142 123 120 119 115 116 115 116 112 111 110 104 103 103
214 202 202 199 196 195 196 188 174 168 167 163 158 156 154 153 149 152 149 154 149 146 143 140 140 142 143 144 147 135 125 124 121 120 119 119 121 119 115 110 107 105 105
213 205 181 187 188 193 191 200 188 166 162 163 160 161 154 156 155 154 154 160 152 154 143 143 141 139 139 145 139 134 130 120 120 119 120 126 125 122 117 112 110 108 106
216 196 190 186 182 184 173 174 185 171 166 164 160 164 153 152 155 153 154 158 157 150 148 148 141 139 140 142 139 131 121 125 122 120 123 127 127 124 122 120 116 113 111
188 215 190 196 209 197 184 176 171 169 158 157 159 167 154 150 149 154 158 161 157 153 154 148 145 138 129 136 143 126 137 131 126 126 133 136 132 128 126 123 118 116 116
182 214 192 181 187 196 187 175 172 173 170 160 160 164 154 150 151 154 152 157 153 155 151 149 143 142 147 147 151 146 142 133 130 131 140 139 137 136 136 134 130 127 123
203 193 182 182 180 194 193 195 193 178 175 168 168 168 161 157 155 157 153 159 157 162 160 159 160 157 157 155 153 149 145 136 136 134 144 145 143 144 144 144 141 138 135
183 189 172 178 188 185 188 192 181 164 171 166 166 172 168 158 158 156 160 161 164 168 167 169 169 161 162 156 153 152 148 138 143 143 149 162 157 158 159 155 154 150 146
171 190 189 171 188 192 187 173 158 153 163 165 167 168 170 161 163 158 159 165 166 170 172 172 168 164 164 159 157 157 151 151 155 151 155 169 170 175 172 169 168 163 165
184 164 169 177 186 184 176 161 152 149 163 162 166 171 169 166 159 157 157 168 167 169 170 169 169 166 168 168 163 165 167 166 173 166 162 167 181 194 188 185 179 180 180
185 165 165 164 162 168 160 156 149 153 157 167 157 168 165 166 165 151 162 169 169 165 169 171 172 171 175 174 170 172 178 182 188 182 179 177 189 196 207 203 198 192 192
193 180 181 172 158 162 161 155 162 170 173 164 164 163 170 175 184 178 168 172 171 173 174 174 175 178 176 177 177 179 185 194 201 201 199 198 198 201 208 212 209 209 209
194 192 187 174 164 160 160 161 170 181 179 172 170 164 182 183 192 184 177 178 175 179 176 179 182 179 182 179 181 186 193 203 207 211 212 207 214 213 212 206 215 224 225
187 181 182 178 172 165 166 165 165 172 181 183 175 180 192 193 195 188 188 187 184 188 184 183 184 181 184 182 178 191 208 218 223 224 220 218 220 218 222 218 217 226 224
189 186 181 175 182 180 174 175 171 173 184 185 189 204 208 196 198 196 193 195 195 196 190 190 191 189 197 191 196 201 206 216 233 228 225 226 223 218 223 223 226 227 231
192 183 184 176 173 181 186 186 178 165 177 198 203 210 212 206 203 202 200 199 202 200 199 200 199 200 210 211 214 218 209 237 225 218 227 227 227 226 226 228 228 229 232
193 188 183 180 181 178 179 178 179 174 176 196 208 212 213 213 205 206 206 207 206 206 204 210 204 209 224 220 217 232 245 267 239 247 209 225 224 231 237 238 235 230 230
189 188 186 184 186 183 183 181 181 186 195 196 202 208 210 211 208 207 208 211 212 210 209 215 207 212 223 236 223 229 237 243 250 259 264 226 225 228 233 243 240 234 232
188 190 188 188 190 188 187 188 189 190 193 195 203 205 206 203 200 200 208 213 218 214 213 218 218 216 226 238 242 238 239 241 245 247 255 260 252 238 262 248 241 232 233